Cloud_Cover
1 1 4 9 98 67 100 100 96 100 100 86 95 100 100 100 100 34 5 19 29 4 2 5 10 5 6 2 1 4 5 35 5 7 39 21 4 7 60 51 86 44 100
0 0 0 4 99 90 100 100 100 100 100 100 100 100 88 50 83 26 6 5 5 2 4 5 5 4 2 20 7 2 5 6 5 6 0 0 0 3 5 33 10 5 2
0 0 0 1 5 99 100 80 55 99 100 86 5 5 5 5 5 5 5 5 4 46 6 5 5 7 5 28 3 12 5 5 5 5 1 0 0 0 24 5 8 6 1
5 2 5 0 2 5 14 3 0 2 5 5 5 5 5 2 4 5 5 5 6 6 5 5 55 5 22 22 13 30 41 34 4 5 4 0 1 4 7 2 6 3 3
17 1 0 0 0 0 0 0 0 0 2 7 5 11 5 4 9 1 1 5 5 5 5 5 99 39 19 49 48 20 97 100 53 15 5 3 0 0 0 0 0 4 0
0 0 0 0 0 0 0 0 0 0 3 5 5 5 4 4 5 0 2 5 6 5 5 5 6 85 65 5 5 5 9 82 100 99 80 3 0 2 0 0 0 0 1
1 7 0 0 0 0 0 0 0 0 0 4 5 5 10 5 5 5 5 85 6 5 5 5 5 84 57 5 5 5 5 5 45 88 100 16 2 0 1 10 21 6 2
0 1 0 0 0 0 0 0 0 1 5 5 5 8 5 5 5 6 8 26 6 18 5 6 5 6 54 5 5 5 5 13 26 51 100 8 5 2 0 2 3 0 0
0 0 0 0 5 0 0 1 2 5 5 5 5 5 5 5 5 5 5 5 5 5 29 5 5 5 5 5 5 59 40 16 85 100 100 70 25 5 1 0 0 2 0
0 2 1 0 0 0 0 4 5 5 5 5 5 11 5 5 5 5 5 64 38 5 80 100 34 5 5 5 5 6 6 44 73 86 100 84 90 5 5 2 0 4 16
0 4 1 0 0 0 0 2 1 0 0 1 5 7 5 42 21 57 47 6 44 53 54 100 100 100 100 100 100 46 5 29 72 60 88 100 100 98 5 5 33 1 0
0 0 0 0 0 0 0 0 0 0 0 5 5 68 100 98 75 100 36 96 100 100 100 100 100 100 100 100 100 100 98 22 5 98 100 100 100 100 100 42 6 8 0
0 0 0 0 0 0 0 0 0 0 0 5 5 16 43 45 99 70 18 97 100 100 100 100 100 68 100 100 100 100 100 13 5 5 98 100 100 100 100 100 32 8 2
1 0 0 0 0 0 0 0 5 0 0 0 5 7 7 76 100 93 47 16 99 100 100 100 100 99 76 100 66 100 100 59 5 9 74 100 100 100 100 100 100 68 21
1 0 0 0 0 0 5 0 4 0 0 0 1 5 12 61 81 100 87 8 92 100 100 100 100 75 100 99 100 68 100 93 100 100 19 20 100 84 92 100 100 99 6
5 0 0 0 0 2 0 0 0 0 0 0 2 14 92 7 8 8 82 53 68 58 90 84 100 100 100 96 100 81 100 100 100 100 100 22 46 89 96 100 100 100 30
94 82 87 39 0 0 0 0 0 0 0 0 0 2 13 7 56 53 47 38 56 97 42 60 7 100 88 100 100 100 100 100 100 100 100 100 57 9 69 23 100 100 100
100 100 92 100 93 4 0 0 0 0 0 0 0 0 6 41 8 6 56 92 100 99 96 100 72 69 94 90 100 99 100 100 100 98 100 100 100 44 5 68 78 95 100
100 96 67 80 13 12 100 100 16 0 0 0 9 11 5 85 98 100 75 100 100 93 100 100 75 42 89 25 100 98 100 100 100 100 99 58 100 100 33 5 38 96 100
80 35 88 78 25 28 18 46 74 5 5 4 51 89 5 100 100 100 100 48 100 100 96 100 56 100 88 100 100 100 99 100 100 100 100 55 28 100 100 51 66 56 11
63 100 100 66 86 67 88 100 78 11 66 19 31 85 39 96 9 100 100 90 100 83 100 100 100 60 100 100 100 100 100 100 100 98 100 100 85 100 100 100 5 99 100
100 40 55 100 77 49 88 69 100 47 81 99 97 96 36 14 58 100 99 14 98 100 100 100 100 72 98 93 100 100 89 99 100 100 100 100 99 95 98 99 40 100 98
100 100 37 0 4 84 100 100 100 100 96 100 100 100 100 96 100 65 4 4 5 24 61 100 100 40 98 85 100 86 100 86 90 99 100 100 100 100 93 100 100 100 100
87 100 0 0 0 72 100 100 100 47 100 83 91 100 100 100 93 5 94 7 5 5 16 100 100 28 86 63 100 98 81 88 91 100 100 100 100 36 41 97 97 49 100
100 100 1 0 0 0 1 4 66 90 5 24 99 100 100 40 40 4 5 10 49 8 93 96 100 35 99 100 100 100 100 97 83 100 100 100 100 99 44 100 98 100 100
100 13 0 0 0 0 0 1 4 28 5 8 68 71 100 94 8 5 4 3 2 15 100 100 100 64 100 100 100 100 100 100 100 100 100 100 100 100 100 96 100 89 100